This demonstration page uses our WeatherBlox Daily Observations layout. Learn more.

Left ArrowRight Arrow

38.88101, -77.10428

Hourly Observations for August 31, 2020

Temp ( °F °C ) Dew Point ( °F °C ) Humidity (%) Winds ( mph kmh ) Pressure ( in mb ) Visibility ( mi km ) Precip ( " mm )
12:52 am 00:52 Cloudy 72 22.2 60 15.6 66 66 SE 3 6 29.96 1015 10 16.0934 0 0
1:52 am 01:52 Mostly Cloudy 74 23.3 60 15.6 62 62 ENE 3 6 29.96 1015 10 16.0934 0 0
2:52 am 02:52 Cloudy 72 22.2 61 16.1 68 68 SSE 3 6 29.96 1015 10 16.0934 0 0
3:52 am 03:52 Cloudy 71 21.7 63 17.2 76 76 SSE 7 11 29.97 1015 10 16.0934 0 0
4:52 am 04:52 Cloudy 70 21.1 63 17.2 79 79 WSW 3 6 29.98 1015 10 16.0934 0 0
5:52 am 05:52 Mostly Cloudy 70 21.1 64 17.8 82 82 E 5 7 29.98 1015 10 16.0934 0 0
6:52 am 06:52 Mostly Cloudy 70 21.1 63 17.2 79 79 ESE 5 7 30.01 1016 10 16.0934 0 0
7:52 am 07:52 Cloudy 72 22.2 64 17.8 76 76 ESE 3 6 30.02 1017 10 16.0934 0 0
8:52 am 08:52 Cloudy 74 23.3 65 18.3 74 74 Calm 30.03 1017 10 16.0934 0 0
9:52 am 09:52 Cloudy 75 23.9 67 19.4 76 76 Calm 30.04 1017 10 16.0934 0 0
10:52 am 10:52 Cloudy 76 24.4 67 19.4 74 74 SSE 7 11 30.03 1017 10 16.0934 0 0
11:52 am 11:52 Cloudy 77 25 68 20 74 74 SE 9 15 30.03 1017 10 16.0934 0.001 0.001
12:52 pm 12:52 Cloudy with Light Rain 76 24.4 68 20 77 77 ESE 9 15 30.01 1016 10 16.0934 0.001 0.001
1:52 pm 13:52 Cloudy with Light Rain 76 24.4 68 20 77 77 ESE 8 13 30.02 1017 10 16.0934 0.01 0.254
2:52 pm 14:52 Cloudy with Light Rain 75 23.9 67 19.4 76 76 SE 8 13 30.01 1016 10 16.0934 0.001 0.001
3:52 pm 15:52 Mostly Cloudy with Light Rain 73 22.8 66 18.9 79 79 SE 6 9 30.01 1016 10 16.0934 0.03 0.762
4:52 pm 16:52 Cloudy with Rain 72 22.2 66 18.9 82 82 Calm 30.02 1017 5 8.0467 0.06 1.524
5:29 pm 17:29 Cloudy with Rain 71 21.7 68 20 90 90 WSW 3 6 30.04 1017 2.5 4.02335 0.05 1.27
5:33 pm 17:33 Cloudy with Heavy Rain 71 21.7 68 20 90 90 WSW 3 6 30.04 1017 1.5 2.41401 0.08 2.032
5:45 pm 17:45 Cloudy with Rain 71 21.7 68 20 90 90 Calm 30.04 1017 2.5 4.02335 0.15 3.81
5:49 pm 17:49 Cloudy with Rain 72 22 68 20 88 88 Calm 30.04 1017 3 4.82802 0.16 4.064
5:52 pm 17:52 Cloudy with Light Rain 71 21.7 68 20 90 90 S 3 6 30.04 1017 4 6.43736 0.17 4.318
5:55 pm 17:55 Cloudy with Rain 71 21.7 68 20 90 90 S 6 9 30.04 1017 4 6.43736 0.001 0.001
6:03 pm 18:03 Cloudy with Light Rain 71 21.7 68 20 90 90 S 6 9 30.05 1018 5 8.0467 0.01 0.254
6:06 pm 18:06 Cloudy with Rain 71 21.7 68 20 90 90 SSW 5 7 30.05 1018 5 8.0467 0.02 0.508
6:11 pm 18:11 Cloudy with Rain 71 21.7 67 19.4 87 87 S 7 11 30.05 1018 5 8.0467 0.03 0.762
6:17 pm 18:17 Cloudy with Heavy Rain 71 21.7 67 19.4 87 87 S 6 9 30.05 1018 2.5 4.02335 0.05 1.27
6:25 pm 18:25 Cloudy with Rain 70 21.1 67 19.4 90 90 SSE 7 11 30.05 1018 3 4.82802 0.08 2.032
6:52 pm 18:52 Cloudy with Light Rain 71 21.7 67 19.4 87 87 SE 3 6 30.04 1017 10 16.0934 0.08 2.032
7:52 pm 19:52 Cloudy 71 21.7 67 19.4 87 87 ENE 7 11 30.03 1017 10 16.0934 0.001 0.001
8:52 pm 20:52 Cloudy 71 21.7 67 19.4 87 87 Calm 30.04 1017 10 16.0934 0 0
9:42 pm 21:42 Cloudy with Light Rain 70 21.1 66 18.9 87 87 WSW 6 9 30.08 1019 5 8.0467 0.01 0.254
9:52 pm 21:52 Cloudy with Rain 69 20.6 63 17.2 81 81 VRB 5 7 30.08 1019 4 6.43736 0.04 1.016
10:25 pm 22:25 Cloudy 69 20.6 64 17.8 84 84 ENE 7 11 30.08 1019 10 16.0934 0.01 0.254
10:52 pm 22:52 Cloudy 69 20.6 63 17.2 81 81 ENE 9 15 30.07 1018 10 16.0934 0.01 0.254
11:52 pm 23:52 Cloudy 69 20.6 65 18.3 87 87 NE 9 15 30.07 1018 10 16.0934 0 0

Powered by AerisWeather